Regional Weather Roundup
Issued by NWS

Home | Current Version | Previous Version | Graphics & Text | Print | Product List | Glossary Off
Versions: 1 2 3 4 5 6 7 8 9 10 11 12 13 14 15 16 17 18 19 20 21 22 23 24 25 26 27 28 29 30 31 32 33 34 35 36 37 38 39 40 41 42 43 44 45 46 47 48 49 50

000
ASUS43 KFSD 301110
RWRSD

WEATHER ROUNDUP FOR SOUTH DAKOTA
NATIONAL WEATHER SERVICE SIOUX FALLS SD
500 AM CST FRI JAN 30 2015

NOTE: "FAIR" INDICATES FEW OR NO CLOUDS BELOW 12,000 FEET WITH NO
SIGNIFICANT WEATHER AND/OR OBSTRUCTIONS TO VISIBILITY.


SDZ001>005-009-010-012>017-301200-
NORTHWEST AND NORTH CENTRAL SOUTH DAKOTA

CITY           SKY/WX    TMP DP  RH WIND       PRES   REMARKS
BUFFALO          N/A     24  16  71 SW3       30.13F
FAITH            N/A     21  16  81 S17       30.21F WCI   7
MOBRIDGE       CLEAR     21  17  84 SE14      30.29F WCI   8
$$

SDZ012>016-024>037-041>051-057-063-072>074-301200-
SOUTHWEST AND SOUTH CENTRAL SOUTH DAKOTA

CITY           SKY/WX    TMP DP  RH WIND       PRES   REMARKS
RAPID CTY ARPT PTCLDY    22  14  71 CALM      30.20F
PIERRE         CLEAR     21  18  88 SE12      30.32F WCI   9
CUSTER         PTCLDY    27  19  72 CALM      30.19F
ELLSWORTH AFB  PTCLDY    21  14  74 W2        30.19F
PHILIP         PTCLDY    17  14  88 E5        30.28F WCI  10
PINE RIDGE     MOCLDY    30  18  60 CALM      30.24F
WINNER         FAIR      25  20  81 SE14      30.35F WCI  13
$$

SDZ004>011-016>023-039-040-301200-
NORTHEAST SOUTH DAKOTA

CITY           SKY/WX    TMP DP  RH WIND       PRES   REMARKS
ABERDEEN       CLEAR     16  13  88 S8        30.42F WCI   5
WATERTOWN      CLOUDY    17  14  88 S12       30.41F WCI   4
SISSETON         N/A     15  12  88 S9        30.44F WCI   3
$$

SDZ017-020-022-023-036>040-048>070-301200-
SOUTHEAST SOUTH DAKOTA

CITY           SKY/WX    TMP DP  RH WIND       PRES   REMARKS
SIOUX FALLS    PTCLDY    20  15  81 SE6       30.47F WCI  12
HURON          CLEAR     17  14  88 S9        30.44F WCI   6
CHAMBERLAIN    CLEAR     19  17  93 SE7       30.38F WCI   9
MITCHELL       CLEAR     21  17  84 S10       30.47F WCI  10
YANKTON        CLEAR     18  16  93 S3        30.50F
$$

ABBREVIATIONS USED IN REMARKS
   TC - TEMPERATURE IN CELSIUS
  WCI - WIND CHILL INDEX
   HX - HEAT INDEX
  VSB - VISIBILITY



USA.gov is the U.S. government's official web portal to all federal, state and local government web resources and services.